Location: Unspecified
(0.0000°N, 0.0000°E)
Time: 06:43:06
(UTC+00:00)

deb Explorer IX - All Passes

Search period start: 03 October 2023 00:00
Search period end: 13 October 2023 00:00
Orbit: 527 x 964 km, 38.8° (Epoch: 02 October)

Date Brightness Start Highest point End Pass type
(mag) Time Alt. Az. Time Alt. Az. Time Alt. Az.
03 Oct - 06:41:38 10° NNW 06:47:23 34° NE 06:52:44 10° ESE daylight
03 Oct - 08:27:00 10° WNW 08:32:49 41° SW 08:38:04 10° SSE daylight
03 Oct - 19:11:15 10° SW 19:15:21 56° SE 19:19:51 10° ENE visible
03 Oct - 20:57:52 10° WNW 21:00:35 16° NW 21:03:29 10° N visible
04 Oct - 05:55:12 10° NNW 06:00:21 25° NE 06:05:17 10° E daylight
04 Oct - 07:39:37 10° WNW 07:45:56 62° SW 07:51:39 10° SE daylight
04 Oct - 18:24:59 10° SSW 18:28:40 33° SE 18:32:37 10° ENE visible
04 Oct - 20:10:17 10° W 20:13:42 23° NW 20:17:24 10° NNE visible
05 Oct - 05:09:01 10° N 05:13:12 18° NE 05:17:17 10° ENE visible
05 Oct - 06:52:24 10° NW 06:58:55 89° SW 07:04:56 10° SE daylight
05 Oct - 08:40:50 10° WSW 08:44:16 15° SW 08:47:31 10° S daylight
05 Oct - 17:38:56 10° S 17:41:55 20° SE 17:45:00 10° E daylight
05 Oct - 19:23:02 10° WSW 19:26:49 34° NW 19:30:56 10° NNE visible
06 Oct - 04:23:29 10° NNE 04:25:57 12° NE 04:28:24 10° ENE visible
06 Oct - 06:05:19 10° NW 06:11:47 64° NE 06:17:55 10° ESE daylight
06 Oct - 07:52:18 10° W 07:57:11 23° SW 08:01:46 10° S daylight
06 Oct - 16:53:29 10° SSE 16:55:02 12° SE 16:56:37 10° ESE daylight
06 Oct - 18:35:58 10° WSW 18:39:56 56° NW 18:44:12 10° NE visible
07 Oct - 05:18:21 10° NNW 05:24:33 45° NE 05:30:35 10° ESE visible
07 Oct - 07:04:15 10° WNW 07:10:00 34° SW 07:15:26 10° SSE daylight
07 Oct - 17:49:02 10° SW 17:53:02 83° SE 17:57:14 10° NE daylight
08 Oct - 04:31:32 10° NNW 04:37:14 32° NE 04:42:54 10° E visible
08 Oct - 06:16:28 10° WNW 06:22:44 49° SW 06:28:44 10° SSE daylight
08 Oct - 17:02:14 10° SSW 17:06:05 46° SE 17:09:59 10° ENE daylight
08 Oct - 18:48:46 10° WNW 18:51:04 15° NW 18:53:26 10° N visible
09 Oct - 03:44:56 10° N 03:49:50 23° NE 03:54:46 10° E visible
09 Oct - 05:28:52 10° NW 05:35:23 71° SW 05:41:44 10° SE daylight
09 Oct - 07:18:14 10° WSW 07:20:57 13° SW 07:23:37 10° SSW daylight
09 Oct - 16:15:34 10° SSW 16:19:01 27° SE 16:22:28 10° E daylight
09 Oct - 18:00:43 10° W 18:03:54 23° NW 18:07:12 10° NNE daylight
10 Oct - 02:58:44 10° N 03:02:20 15° NE 03:06:00 10° ENE visible
10 Oct - 04:41:26 10° NW 04:47:56 82° NE 04:54:25 10° SE visible
10 Oct - 06:28:59 10° W 06:33:28 19° SW 06:37:50 10° S daylight
10 Oct - 15:29:09 10° S 15:31:51 17° SE 15:34:30 10° E daylight
10 Oct - 17:13:02 10° WSW 17:16:45 37° NW 17:20:31 10° NNE daylight
11 Oct - 03:54:09 10° NW 04:00:24 57° NE 04:06:48 10° ESE visible
11 Oct - 05:40:28 10° W 05:45:54 28° SW 05:51:16 10° SSE daylight
11 Oct - 14:43:36 10° SSE 14:44:32 11° SE 14:45:26 10° SE daylight
11 Oct - 16:25:32 10° SW 16:29:34 66° NW 16:33:31 10° NE daylight
12 Oct - 03:07:02 10° NNW 03:12:50 39° NE 03:18:51 10° ESE visible
12 Oct - 04:52:18 10° WNW 04:58:17 39° SW 05:04:18 10° SSE visible
12 Oct - 15:38:10 10° SW 15:42:18 69° SE 15:46:16 10° NE daylight
